Weather History for Shirley, NY

Change the Weather History Date:

Wednesday, January 29, 2014

  Actual Average (KISP) Record (KISP)
Temperature  
Mean Temperature 19 °F 31 °F  
Max Temperature 23 °F 38 °F 69 °F (2002)
Min Temperature 12 °F 23 °F 3 °F (2005)
Degree Days  
Heating Degree Days 46 34  
Month to date heating degree days 999  
Since 1 July heating degree days 2926  
Cooling Degree Days 0 0  
Month to date cooling degree days 0  
Year to date cooling degree days 0  
Moisture  
Dew Point 6 °F    
Average Humidity 67    
Maximum Humidity 88    
Minimum Humidity 34    
Precipitation  
Precipitation 0.00 in 0.11 in 1.25 in (1990)
Month to date precipitation 3.42  
Year to date precipitation 3.42  
Snow  
Snow 0.00 in 0.30 in 0.30 in (1986)
Month to date snowfall 6.3  
Since 1 July snowfall 12.2  
Snow Depth -    
Sea Level Pressure  
Sea Level Pressure 30.18 in    
Wind  
Wind Speed 7 mph (NW)    
Max Wind Speed 13 mph    
Max Gust Speed -    
Visibility 5 miles    
Events Snow    
T = Trace of Precipitation, MM = Missing Value Source: NWS Daily Summary

Daily Weather History Graph

Daily Weather History Graph

Search for Another Location

Airport:

Trip Planner

Search our weather history database for the weather conditions in past years. The results will help you decide how hot, cold, wet, or windy it might be!

Date:

Astronomy

Jan. 29, 2014 Rise Set
Actual Time 7:04 AM EST 5:05 PM EST
Civil Twilight 6:35 AM EST 5:34 PM EST
Nautical Twilight 6:02 AM EST 6:07 PM EST
Astronomical Twilight 5:30 AM EST 6:39 PM EST
Moon 5:38 AM EST (1/29) 4:01 PM EST (1/29)
Length of Visible Light 10h 59m
Length of Day
10h 00m
Waning Crescent, 2% of the Moon is Illuminated
Jan 29
Waning Crescent
Jan 30
New
Feb 6
First Quarter
Feb 14
Full
Feb 22
Last Quarter

Hourly Weather History & Observations

Time (EST) Temp. Windchill Dew Point Humidity Pressure Visibility Wind Dir Wind Speed Gust Speed Precip Events Conditions
12:56 AM 16.0 °F 8.8 °F 8.1 °F 71% 30.23 in 2.5 mi NNW 4.6 mph - 0.00 in Snow Light Snow
1:07 AM 15.1 °F 7.7 °F 8.1 °F 74% 30.23 in 2.5 mi NNW 4.6 mph - 0.00 in Snow Light Snow
1:30 AM 15.1 °F 5.2 °F 8.1 °F 74% 30.22 in 1.8 mi NNW 6.9 mph - 0.00 in Snow Light Snow
1:49 AM 15.1 °F 6.4 °F 8.1 °F 74% 30.20 in 2.0 mi NNW 5.8 mph - 0.00 in Snow Light Snow
1:56 AM 15.1 °F 6.4 °F 8.1 °F 74% 30.21 in 2.5 mi North 5.8 mph - 0.00 in Snow Light Snow
2:24 AM 15.1 °F 5.2 °F 9.0 °F 77% 30.20 in 1.8 mi NNW 6.9 mph - 0.00 in Snow Light Snow
2:32 AM 15.1 °F 4.2 °F 9.0 °F 77% 30.20 in 2.0 mi NNW 8.1 mph - 0.00 in Snow Light Snow
2:54 AM 15.8 °F 6.1 °F 8.6 °F 73% 30.19 in 1.5 mi NNW 6.9 mph - 0.00 in Snow Light Snow
2:56 AM 15.1 °F 5.2 °F 9.0 °F 77% 30.20 in 1.5 mi NNW 6.9 mph - 0.00 in Snow Light Snow
3:36 AM 15.1 °F 6.4 °F 10.0 °F 80% 30.17 in 2.0 mi NNW 5.8 mph - 0.00 in Snow Light Snow
3:56 AM 15.1 °F 3.3 °F 10.9 °F 84% 30.17 in 2.0 mi NNW 9.2 mph - 0.00 in Snow Light Snow
4:27 AM 15.1 °F 5.2 °F 10.9 °F 84% 30.15 in 1.8 mi North 6.9 mph - 0.00 in Snow Light Snow
4:48 AM 15.1 °F 7.7 °F 10.9 °F 84% 30.14 in 2.0 mi North 4.6 mph - 0.00 in Snow Light Snow
4:56 AM 15.1 °F 7.7 °F 10.9 °F 84% 30.14 in 1.8 mi NNW 4.6 mph - 0.00 in Snow Light Snow
5:56 AM 15.1 °F 7.7 °F 10.9 °F 84% 30.15 in 2.0 mi NNW 4.6 mph - 0.00 in Snow Light Snow
6:20 AM 15.1 °F 6.4 °F 10.9 °F 84% 30.13 in 1.8 mi NNW 5.8 mph - 0.00 in Snow Light Snow
6:38 AM 15.1 °F 6.4 °F 10.9 °F 84% 30.15 in 2.0 mi NW 5.8 mph - 0.00 in Snow Light Snow
6:56 AM 15.1 °F 5.2 °F 10.9 °F 84% 30.15 in 2.0 mi NW 6.9 mph - 0.00 in Snow Light Snow
7:10 AM 15.1 °F 6.4 °F 12.0 °F 88% 30.16 in 3.0 mi WNW 5.8 mph - 0.00 in Snow Light Snow
7:28 AM 15.1 °F 9.4 °F 12.0 °F 88% 30.15 in 2.0 mi WNW 3.5 mph - 0.00 in Snow Light Snow
7:56 AM 16.0 °F 7.4 °F 12.0 °F 84% 30.16 in 2.0 mi WNW 5.8 mph - 0.00 in Snow Light Snow
8:11 AM 16.0 °F 7.4 °F 12.0 °F 84% 30.15 in 4.0 mi WNW 5.8 mph - 0.00 in Snow Light Snow
8:56 AM 17.1 °F 7.6 °F 12.0 °F 81% 30.17 in 10.0 mi NW 6.9 mph - 0.00 in   Mostly Cloudy
9:56 AM 17.1 °F 5.8 °F 8.1 °F 68% 30.16 in 10.0 mi NNW 9.2 mph - N/A   Clear
10:56 AM 18.0 °F 5.4 °F 3.9 °F 54% 30.15 in 10.0 mi WNW 11.5 mph - N/A   Clear
11:56 AM 19.0 °F 6.8 °F 1.0 °F 46% 30.14 in 10.0 mi West 11.5 mph - N/A   Clear
12:56 PM 21.0 °F 9.3 °F -0.9 °F 38% 30.11 in 10.0 mi WNW 11.5 mph - N/A   Clear
1:56 PM 21.9 °F 9.8 °F -2.0 °F 35% 30.10 in 10.0 mi WNW 12.7 mph - N/A   Clear
2:56 PM 23.0 °F 13.1 °F -2.0 °F 34% 30.10 in 10.0 mi WNW 9.2 mph - N/A   Clear
3:56 PM 23.0 °F 11.7 °F -0.9 °F 35% 30.11 in 10.0 mi West 11.5 mph - N/A   Clear
4:56 PM 21.0 °F 12.4 °F 3.0 °F 46% 30.12 in 10.0 mi SW 6.9 mph - N/A   Clear
5:56 PM 19.0 °F 8.2 °F 1.0 °F 46% 30.17 in 10.0 mi WSW 9.2 mph - N/A   Clear
6:56 PM 18.0 °F 9.8 °F -0.9 °F 44% 30.20 in 10.0 mi SW 5.8 mph - N/A   Clear
7:56 PM 16.0 °F 5.3 °F -0.0 °F 49% 30.22 in 10.0 mi West 8.1 mph - N/A   Clear
8:56 PM 18.0 °F 6.9 °F -0.9 °F 44% 30.24 in 10.0 mi West 9.2 mph - N/A   Clear
9:56 PM 17.1 °F 5.0 °F -0.0 °F 47% 30.27 in 10.0 mi West 10.4 mph - N/A   Clear
10:56 PM 15.1 °F 6.4 °F -0.9 °F 49% 30.29 in 10.0 mi WSW 5.8 mph - N/A   Clear
11:56 PM 12.0 °F 5.9 °F -2.0 °F 53% 30.31 in 10.0 mi WSW 3.5 mph - N/A   Clear